When you browse on this site, cookies collect data to enhance your experience and personalize the content and advertising you see.
Visit our Privacy Policy to learn more. By continuing to use the site, you agree to this use of cookies and data.
  • în România
  • Lista ţărilor
  • Pe 7 zile
  • Temperatura apei
  • Hartă satelitară
  • Meteo pe hartă
  • Widget-uri
  • user-avatar
    Intrare

    Meteo pe oră la Świdwin

    Astăzi, 10 Decembrie, Luni

    Timp Temperatura Precipitaţii Vânt Presiune Umiditate
    00:00 +3°C° 0.5 mm 7 m/s 736 mmHg 82%
    01:00 +3°C° 0 mm 7 m/s 737 mmHg 81%
    02:00 +3°C° 0.1 mm 7 m/s 738 mmHg 79%
    03:00 +3°C° 0.1 mm 7 m/s 738 mmHg 77%
    04:00 +2°C° 0.1 mm 7 m/s 739 mmHg 76%
    05:00 +2°C° 0 mm 7 m/s 739 mmHg 75%
    06:00 +2°C° 0 mm 7 m/s 740 mmHg 75%
    07:00 +1°C° 0 mm 6 m/s 741 mmHg 78%
    08:00 +2°C° 0.1 mm 6 m/s 741 mmHg 76%
    09:00 +2°C° 0.1 mm 7 m/s 742 mmHg 75%
    10:00 +1°C° 0.1 mm 8 m/s 742 mmHg 74%
    11:00 +2°C° 0.1 mm 8 m/s 742 mmHg 72%
    12:00 +2°C° 0.1 mm 8 m/s 742 mmHg 70%
    13:00 +2°C° 0.1 mm 8 m/s 743 mmHg 68%
    14:00 +3°C° 0.1 mm 7 m/s 743 mmHg 70%
    15:00 +2°C° 0.1 mm 6 m/s 743 mmHg 71%
    16:00 +2°C° 0.1 mm 6 m/s 743 mmHg 73%
    17:00 +2°C° 0.1 mm 6 m/s 743 mmHg 75%
    18:00 +1°C° 0.1 mm 6 m/s 743 mmHg 77%
    19:00 +1°C° 0.1 mm 5 m/s 743 mmHg 79%
    20:00 +1°C° 0.1 mm 5 m/s 743 mmHg 80%
    21:00 +1°C° 0.1 mm 5 m/s 743 mmHg 80%
    22:00 +1°C° 0.1 mm 5 m/s 743 mmHg 81%
    23:00 +1°C° 0.4 mm 5 m/s 743 mmHg 80%

    Mâine, 11 Decembrie, Marţi

    Timp Temperatura Precipitaţii Vânt Presiune Umiditate
    00:00 +1°C° 0.4 mm 5 m/s 743 mmHg 80%
    01:00 +1°C° 0.4 mm 5 m/s 743 mmHg 80%
    02:00 +1°C° 0.4 mm 5 m/s 743 mmHg 81%
    03:00 +1°C° 0.4 mm 4 m/s 743 mmHg 82%
    04:00 +1°C° 0.4 mm 4 m/s 743 mmHg 83%
    05:00 +1°C° 0.2 mm 4 m/s 743 mmHg 84%
    06:00 +1°C° 0.2 mm 4 m/s 744 mmHg 85%
    07:00 +1°C° 0.2 mm 3 m/s 744 mmHg 86%
    08:00 +1°C° 0.2 mm 4 m/s 745 mmHg 85%
    09:00 +1°C° 0.2 mm 4 m/s 745 mmHg 84%
    10:00 +1°C° 0.2 mm 5 m/s 746 mmHg 83%
    11:00 +1°C° 0.2 mm 5 m/s 747 mmHg 81%
    12:00 +2°C° 0.2 mm 5 m/s 747 mmHg 80%
    13:00 +2°C° 0.2 mm 6 m/s 747 mmHg 78%
    14:00 +2°C° 0.2 mm 6 m/s 748 mmHg 80%
    15:00 +2°C° 0.2 mm 5 m/s 748 mmHg 81%
    16:00 +2°C° 0.2 mm 5 m/s 749 mmHg 82%
    17:00 +1°C° 0.1 mm 5 m/s 750 mmHg 84%
    18:00 +1°C° 0.1 mm 4 m/s 750 mmHg 85%
    19:00 0°C° 0.1 mm 4 m/s 751 mmHg 87%
    20:00 +1°C° 0 mm 3 m/s 751 mmHg 88%
    21:00 +1°C° 0 mm 3 m/s 752 mmHg 89%
    22:00 +1°C° 0 mm 2 m/s 752 mmHg 91%
    23:00 +1°C° 0 mm 2 m/s 752 mmHg 90%

    Poimâine, 12 Decembrie, Miercuri

    Timp Temperatura Precipitaţii Vânt Presiune Umiditate
    00:00 +1°C° 0 mm 2 m/s 753 mmHg 90%
    01:00 +2°C° 0 mm 1 m/s 753 mmHg 90%
    02:00 +2°C° 0 mm 1 m/s 753 mmHg 90%
    03:00 +2°C° 0 mm 1 m/s 754 mmHg 90%
    04:00 +2°C° 0 mm 1 m/s 754 mmHg 89%
    05:00 +1°C° 0 mm 1 m/s 754 mmHg 89%
    06:00 +1°C° 0 mm 1 m/s 755 mmHg 89%
    07:00 +1°C° 0 mm 1 m/s 755 mmHg 88%
    08:00 +2°C° 0 mm 1 m/s 755 mmHg 86%
    09:00 +2°C° 0 mm 1 m/s 755 mmHg 85%
    10:00 +3°C° 0 mm 1 m/s 756 mmHg 83%
    11:00 +3°C° 0.1 mm 1 m/s 756 mmHg 82%
    12:00 +4°C° 0.1 mm 1 m/s 756 mmHg 81%
    13:00 +4°C° 0.1 mm 1 m/s 756 mmHg 80%
    14:00 +4°C° 0.1 mm 1 m/s 756 mmHg 83%
    15:00 +3°C° 0.1 mm 1 m/s 756 mmHg 85%
    16:00 +3°C° 0.1 mm 1 m/s 756 mmHg 88%
    17:00 +2°C° 0.1 mm 2 m/s 756 mmHg 89%
    18:00 +1°C° 0.1 mm 2 m/s 756 mmHg 90%
    19:00 +1°C° 0.1 mm 2 m/s 756 mmHg 91%
    20:00 +1°C° 0 mm 2 m/s 756 mmHg 92%
    21:00 +1°C° 0 mm 2 m/s 757 mmHg 92%
    22:00 +1°C° 0 mm 2 m/s 757 mmHg 92%
    23:00 +1°C° 0 mm 2 m/s 757 mmHg 93%

    13 Decembrie, Joi

    Timp Temperatura Precipitaţii Vânt Presiune Umiditate
    00:00 +1°C° 0 mm 2 m/s 757 mmHg 93%
    01:00 +1°C° 0 mm 2 m/s 757 mmHg 93%
    02:00 +1°C° 0 mm 2 m/s 756 mmHg 93%
    03:00 -1°C° 0 mm 2 m/s 756 mmHg 92%
    04:00 -1°C° 0 mm 2 m/s 756 mmHg 92%
    05:00 -1°C° 0 mm 2 m/s 756 mmHg 92%
    06:00 -1°C° 0 mm 2 m/s 756 mmHg 93%
    07:00 -1°C° 0 mm 2 m/s 756 mmHg 93%
    08:00 +1°C° 0 mm 2 m/s 756 mmHg 91%
    09:00 +1°C° 0 mm 2 m/s 756 mmHg 89%
    10:00 +1°C° 0 mm 2 m/s 755 mmHg 88%
    11:00 +2°C° 0 mm 2 m/s 755 mmHg 85%
    12:00 +1°C° 0 mm 3 m/s 755 mmHg 81%
    13:00 +1°C° 0 mm 3 m/s 755 mmHg 78%
    14:00 +1°C° 0 mm 3 m/s 755 mmHg 80%
    15:00 +1°C° 0 mm 2 m/s 755 mmHg 82%
    16:00 +1°C° 0 mm 2 m/s 755 mmHg 84%
    17:00 +1°C° 0 mm 2 m/s 755 mmHg 84%
    18:00 +1°C° 0 mm 2 m/s 755 mmHg 85%
    19:00 +1°C° 0 mm 2 m/s 755 mmHg 85%
    20:00 -1°C° 0 mm 2 m/s 755 mmHg 86%
    21:00 -1°C° 0 mm 2 m/s 755 mmHg 86%
    22:00 -1°C° 0 mm 2 m/s 755 mmHg 86%
    23:00 -1°C° 0 mm 2 m/s 756 mmHg 87%

    14 Decembrie, Vineri

    Timp Temperatura Precipitaţii Vânt Presiune Umiditate
    00:00 -1°C° 0 mm 2 m/s 756 mmHg 88%
    01:00 0°C° 0 mm 1 m/s 756 mmHg 89%
    02:00 0°C° 0 mm 1 m/s 756 mmHg 89%
    03:00 -2°C° 0 mm 2 m/s 756 mmHg 90%
    04:00 -2°C° 0 mm 2 m/s 756 mmHg 91%
    05:00 -2°C° 0 mm 2 m/s 757 mmHg 91%
    06:00 -2°C° 0 mm 2 m/s 757 mmHg 92%
    07:00 -2°C° 0 mm 2 m/s 757 mmHg 93%
    08:00 -2°C° 0 mm 2 m/s 758 mmHg 91%
    09:00 -2°C° 0 mm 2 m/s 758 mmHg 89%
    10:00 -1°C° 0 mm 3 m/s 759 mmHg 87%
    11:00 -1°C° 0 mm 3 m/s 759 mmHg 85%
    12:00 +1°C° 0 mm 2 m/s 759 mmHg 83%
    13:00 +1°C° 0 mm 2 m/s 760 mmHg 81%
    14:00 +1°C° 0 mm 2 m/s 760 mmHg 84%
    15:00 -1°C° 0 mm 2 m/s 760 mmHg 86%
    16:00 -1°C° 0 mm 2 m/s 761 mmHg 88%
    17:00 -1°C° 0 mm 2 m/s 761 mmHg 87%
    18:00 -1°C° 0 mm 2 m/s 761 mmHg 87%
    19:00 -1°C° 0 mm 3 m/s 762 mmHg 86%
    20:00 -1°C° 0 mm 2 m/s 762 mmHg 86%
    21:00 -1°C° 0 mm 2 m/s 762 mmHg 85%
    22:00 -1°C° 0 mm 2 m/s 762 mmHg 85%
    23:00 -1°C° 0 mm 2 m/s 763 mmHg 85%

    15 Decembrie, Sâmbătă

    Timp Temperatura Precipitaţii Vânt Presiune Umiditate
    00:00 -1°C° 0 mm 2 m/s 763 mmHg 85%
    01:00 -1°C° 0 mm 2 m/s 763 mmHg 85%
    02:00 -1°C° 0 mm 2 m/s 763 mmHg 85%
    03:00 -1°C° 0 mm 2 m/s 763 mmHg 85%
    04:00 -1°C° 0 mm 2 m/s 764 mmHg 86%
    05:00 -1°C° 0 mm 2 m/s 764 mmHg 86%
    06:00 -1°C° 0 mm 2 m/s 764 mmHg 86%
    07:00 -1°C° 0 mm 2 m/s 764 mmHg 87%
    08:00 -1°C° 0 mm 2 m/s 764 mmHg 86%
    09:00 -1°C° 0 mm 3 m/s 765 mmHg 84%
    10:00 -1°C° 0 mm 3 m/s 765 mmHg 83%
    11:00 0°C° 0 mm 3 m/s 765 mmHg 80%
    12:00 0°C° 0 mm 3 m/s 765 mmHg 77%
    13:00 0°C° 0 mm 3 m/s 765 mmHg 74%
    14:00 0°C° 0 mm 3 m/s 765 mmHg 78%
    15:00 -1°C° 0 mm 3 m/s 765 mmHg 82%
    16:00 -2°C° 0 mm 3 m/s 765 mmHg 86%
    17:00 -2°C° 0 mm 3 m/s 765 mmHg 87%
    18:00 -3°C° 0 mm 4 m/s 765 mmHg 87%
    19:00 -3°C° 0 mm 4 m/s 765 mmHg 88%
    20:00 -3°C° 0 mm 4 m/s 764 mmHg 87%
    21:00 -4°C° 0 mm 5 m/s 764 mmHg 86%
    22:00 -4°C° 0 mm 5 m/s 764 mmHg 85%
    23:00 -4°C° 0 mm 5 m/s 764 mmHg 84%
    Arată mai mult